Cody, WY

8:20 AM MST on February 09, 2016 (GMT -0700)
Yellowstone Regional

Weather History for KCOD - October, 2012

Change the Weather History Date:

Tuesday, October 2, 2012

  Actual Average Record
Temperature  
Mean Temperature 68 °F -  
Max Temperature 78 °F 68 °F 84 °F (1922)
Min Temperature 53 °F 40 °F 21 °F (1944)
Cooling Degree Days 2    
Growing Degree Days 18 (Base 50)    
Moisture  
Dew Point 26 °F    
Average Humidity 21    
Maximum Humidity 33    
Minimum Humidity 13    
Precipitation  
Precipitation 0.00 in - - ()
Sea Level Pressure  
Sea Level Pressure 29.88 in    
Wind  
Wind Speed 11 mph (West)    
Max Wind Speed 22 mph    
Max Gust Speed 30 mph    
Visibility 10 miles    
Events      
Averages and records for this station are not official NWS values.
T = Trace of Precipitation, MM = Missing Value Source: NWS Daily Summary

Daily Weather History Graph

Daily Weather History Graph

Search for Another Location

Airport or City:

Trip Planner

Search our weather history database for the weather conditions in past years. The results will help you decide how hot, cold, wet, or windy it might be!

Date:

Astronomy

Oct. 02, 2012 Rise Set
Actual Time 7:15 AM MDT 6:53 PM MDT
Civil Twilight 6:46 AM MDT 7:22 PM MDT
Nautical Twilight 6:13 AM MDT 7:56 PM MDT
Astronomical Twilight 5:38 AM MDT 8:30 PM MDT
Moon 8:00 PM MDT (10/2) 9:54 AM MDT (10/2)
Length of Visible Light 12h 36m
Length of Day
11h 38m
Waning Gibbous, 94% of the Moon is Illuminated
Oct 2
Waning Gibbous
Oct 8
Last Quarter
Oct 15
New
Oct 21
First Quarter
Oct 29
Full

Hourly Weather History & Observations

Time (MDT) Temp. Dew Point Humidity Pressure Visibility Wind Dir Wind Speed Gust Speed Precip Events Conditions
12:35 AM 68.0 °F 30.2 °F 24% 29.98 in 10.0 mi WSW 17.3 mph 23.0 mph N/A   Clear
12:55 AM 68.0 °F 30.2 °F 24% 29.98 in 10.0 mi SW 16.1 mph 28.8 mph N/A   Clear
1:15 AM 66.2 °F 30.2 °F 26% 29.97 in 10.0 mi SW 21.9 mph 29.9 mph N/A   Clear
1:35 AM 66.2 °F 30.2 °F 26% 29.97 in 10.0 mi SSW 19.6 mph 23.0 mph N/A   Clear
1:55 AM 69.8 °F 28.4 °F 21% 29.97 in 10.0 mi South 6.9 mph 23.0 mph N/A   Clear
2:15 AM 68.0 °F 28.4 °F 23% 29.97 in 10.0 mi NNE 6.9 mph - N/A   Clear
2:35 AM 68.0 °F 28.4 °F 23% 29.95 in 10.0 mi East 3.5 mph 20.7 mph N/A   Clear
2:55 AM 68.0 °F 28.4 °F 23% 29.95 in 10.0 mi SE 5.8 mph - N/A   Clear
3:15 AM 66.2 °F 28.4 °F 24% 29.95 in 10.0 mi NNW 5.8 mph - N/A   Clear
3:36 AM 66.2 °F 28.4 °F 24% 29.95 in 10.0 mi West 9.2 mph 19.6 mph N/A   Clear
3:55 AM 66.2 °F 28.4 °F 24% 29.95 in 10.0 mi West 5.8 mph - N/A   Clear
4:15 AM 66.2 °F 28.4 °F 24% 29.93 in 10.0 mi West 8.1 mph 17.3 mph N/A   Clear
4:55 AM 66.2 °F 26.6 °F 23% 29.92 in 10.0 mi ENE 8.1 mph 16.1 mph N/A   Clear
5:15 AM 66.2 °F 26.6 °F 23% 29.92 in 10.0 mi NNW 9.2 mph - N/A   Clear
5:35 AM 66.2 °F 26.6 °F 23% 29.92 in 10.0 mi NW 4.6 mph - N/A   Clear
5:55 AM 66.2 °F 28.4 °F 24% 29.92 in 10.0 mi NNW 8.1 mph 18.4 mph N/A   Clear
6:16 AM 64.4 °F 26.6 °F 24% 29.92 in 10.0 mi West 5.8 mph - N/A   Clear
6:35 AM 64.4 °F 28.4 °F 26% 29.93 in 10.0 mi West 9.2 mph - N/A   Clear
6:55 AM 64.4 °F 28.4 °F 26% 29.94 in 10.0 mi Calm Calm - N/A   Clear
7:15 AM 60.8 °F 28.4 °F 29% 29.94 in 10.0 mi NNW 4.6 mph - N/A   Clear
7:35 AM 60.8 °F 28.4 °F 29% 29.95 in 10.0 mi NNW 6.9 mph - N/A   Clear
7:55 AM 62.6 °F 30.2 °F 30% 29.94 in 10.0 mi NNW 6.9 mph - N/A   Clear
8:15 AM 60.8 °F 28.4 °F 29% 29.95 in 10.0 mi ESE 3.5 mph - N/A   Clear
8:35 AM 64.4 °F 28.4 °F 26% 29.95 in 10.0 mi NW 5.8 mph 16.1 mph N/A   Clear
8:55 AM 64.4 °F 32.0 °F 30% 29.94 in 10.0 mi NNW 8.1 mph - N/A   Clear
9:15 AM 64.4 °F 33.8 °F 32% 29.95 in 10.0 mi NW 4.6 mph - N/A   Clear
9:55 AM 68.0 °F 30.2 °F 24% 29.95 in 10.0 mi NW 10.4 mph 18.4 mph N/A   Clear
10:15 AM 69.8 °F 30.2 °F 23% 29.94 in 10.0 mi WSW 17.3 mph 25.3 mph N/A   Clear
10:35 AM 69.8 °F 28.4 °F 21% 29.94 in 10.0 mi WSW 16.1 mph 26.5 mph N/A   Clear
10:55 AM 71.6 °F 28.4 °F 20% 29.93 in 10.0 mi West 17.3 mph 24.2 mph N/A   Clear
11:15 AM 71.6 °F 28.4 °F 20% 29.92 in 10.0 mi West 13.8 mph 23.0 mph N/A   Clear
11:35 AM 73.4 °F 26.6 °F 18% 29.91 in 8.0 mi WSW 13.8 mph 25.3 mph N/A   Clear
11:55 AM 73.4 °F 26.6 °F 18% 29.90 in 10.0 mi WSW 12.7 mph 20.7 mph N/A   Clear
12:15 PM 73.4 °F 24.8 °F 16% 29.88 in 10.0 mi West 9.2 mph 26.5 mph N/A   Clear
12:35 PM 75.2 °F 21.2 °F 13% 29.87 in 10.0 mi West 15.0 mph 27.6 mph N/A   Clear
1:15 PM 75.2 °F 23.0 °F 14% 29.86 in 10.0 mi WSW 12.7 mph 24.2 mph N/A   Clear
1:35 PM 77.0 °F 24.8 °F 14% 29.85 in 10.0 mi WSW 12.7 mph 24.2 mph N/A   Clear
1:55 PM 75.2 °F 26.6 °F 17% 29.84 in 10.0 mi NNW 9.2 mph - N/A   Clear
2:15 PM 78.8 °F 24.8 °F 14% 29.83 in 10.0 mi NW 11.5 mph 23.0 mph N/A   Clear
2:35 PM 78.8 °F 23.0 °F 13% 29.82 in 10.0 mi West 20.7 mph 27.6 mph N/A   Clear
2:55 PM 78.8 °F 23.0 °F 13% 29.82 in 10.0 mi WSW 13.8 mph 23.0 mph N/A   Clear
3:15 PM 78.8 °F 24.8 °F 14% 29.81 in 10.0 mi WSW 15.0 mph 23.0 mph N/A   Clear
3:35 PM 77.0 °F 24.8 °F 14% 29.81 in 10.0 mi West 17.3 mph 26.5 mph N/A   Clear
3:55 PM 78.8 °F 24.8 °F 14% 29.81 in 10.0 mi WSW 13.8 mph 23.0 mph N/A   Clear
4:15 PM 77.0 °F 24.8 °F 14% 29.81 in 10.0 mi WSW 12.7 mph 24.2 mph N/A   Clear
4:55 PM 77.0 °F 24.8 °F 14% 29.81 in 10.0 mi West 12.7 mph 18.4 mph N/A   Clear
5:15 PM 77.0 °F 24.8 °F 14% 29.81 in 10.0 mi West 11.5 mph 17.3 mph N/A   Clear
5:35 PM 75.2 °F 24.8 °F 15% 29.81 in 10.0 mi WSW 10.4 mph 17.3 mph N/A   Clear
6:15 PM 73.4 °F 21.2 °F 14% 29.82 in 10.0 mi WSW 8.1 mph - N/A   Clear
6:35 PM 73.4 °F 21.2 °F 14% 29.82 in 10.0 mi WSW 12.7 mph 19.6 mph N/A   Clear
6:55 PM 71.6 °F 19.4 °F 14% 29.82 in 10.0 mi West 13.8 mph 25.3 mph N/A   Clear
7:15 PM 71.6 °F 19.4 °F 14% 29.82 in 10.0 mi West 11.5 mph 26.5 mph N/A   Clear
7:35 PM 71.6 °F 21.2 °F 15% 29.82 in 10.0 mi West 10.4 mph - N/A   Clear
8:35 PM 66.2 °F 24.8 °F 21% 29.81 in 10.0 mi NW 9.2 mph - N/A   Clear
8:55 PM 64.4 °F 24.8 °F 22% 29.81 in 10.0 mi NNW 8.1 mph - N/A   Clear
9:15 PM 62.6 °F 26.6 °F 26% 29.81 in 10.0 mi NNW 8.1 mph - N/A   Clear
9:35 PM 62.6 °F 23.0 °F 22% 29.81 in 10.0 mi SSE 11.5 mph - N/A   Clear
9:55 PM 62.6 °F 23.0 °F 22% 29.80 in 10.0 mi SSE 9.2 mph - N/A   Clear
10:15 PM 57.2 °F 21.2 °F 25% 29.80 in 10.0 mi South 8.1 mph - N/A   Clear
10:36 PM 59.0 °F 21.2 °F 23% 29.81 in 10.0 mi SSE 4.6 mph - N/A   Clear
10:55 PM 57.2 °F 21.2 °F 25% 29.81 in 10.0 mi Calm Calm - N/A   Clear
11:15 PM 59.0 °F 21.2 °F 23% 29.80 in 10.0 mi Calm Calm - N/A   Clear
11:35 PM 59.0 °F 24.8 °F 27% 29.81 in 10.0 mi Calm Calm - N/A   Clear
11:55 PM 53.6 °F 24.8 °F 33% 29.81 in 10.0 mi North 5.8 mph - N/A   Clear